Lapse_Rate
0.9 1.6 2.0 2.1 2.2 2.4 2.7 2.9 3.6 3.8 4.0 4.0 4.2 4.1 4.1 4.3 4.2 4.5 4.9 5.1 5.5 5.9
0.8 1.8 1.9 1.9 2.2 2.6 3.1 3.9 4.4 4.3 4.0 4.1 4.3 4.4 4.7 4.8 4.7 5.2 5.5 5.6 6.1 7.0
1.8 2.0 2.3 2.6 2.6 3.0 3.3 3.5 3.5 3.6 3.9 4.1 4.5 5.0 5.4 5.5 5.6 5.9 5.8 6.5 7.1 8.1
1.9 2.7 3.0 3.2 3.3 3.4 3.4 3.6 3.7 4.2 4.4 4.6 5.0 5.5 6.0 5.9 5.8 5.9 6.0 6.6 7.3 7.6
2.6 2.9 2.8 3.0 3.3 3.4 3.2 3.7 4.1 4.5 4.9 5.3 5.7 5.9 6.1 6.0 6.5 6.6 6.6 6.7 7.5 7.5
2.6 2.7 2.7 2.9 3.2 3.6 3.7 3.8 4.3 5.3 5.3 5.6 5.9 6.2 6.4 6.7 6.9 7.3 7.5 7.8 8.2 8.4
3.0 3.5 3.3 3.3 3.4 3.8 4.1 4.2 4.5 5.0 5.2 5.5 5.9 6.7 6.8 7.6 8.0 7.8 7.9 7.8 7.5 7.3
3.5 3.7 3.5 3.6 3.6 3.7 4.0 4.3 4.4 4.7 5.2 5.6 6.2 6.9 8.4 8.1 7.3 7.0 6.7 6.8 7.4 7.3
3.6 3.6 3.6 3.5 3.5 3.5 3.7 4.0 4.1 4.5 5.1 5.6 6.6 7.7 9.4 9.1 7.8 7.6 7.6 7.7 8.0 7.0
3.7 3.6 3.5 3.3 3.2 3.4 3.7 3.7 4.0 4.7 5.4 6.0 6.4 8.9 9.3 9.1 8.0 7.5 7.5 7.5 7.5 7.5
3.8 3.5 3.0 2.8 3.1 3.3 3.5 3.8 4.6 5.4 6.0 6.9 6.9 9.2 9.3 9.2 8.0 7.7 7.9 7.9 7.8 7.9
3.1 2.6 2.6 2.6 2.8 2.9 3.8 4.3 5.3 6.4 6.5 6.8 6.6 8.0 8.9 8.7 7.4 7.3 7.3 7.7 7.6 7.6
2.5 2.6 2.3 2.2 2.5 3.6 4.2 5.7 6.6 6.4 6.3 7.1 7.3 8.1 9.2 8.8 7.6 7.1 7.3 7.6 7.6 8.0
2.0 1.9 2.0 2.7 2.7 4.2 5.6 6.0 5.7 6.0 6.6 7.4 7.9 8.0 9.3 8.9 7.7 7.2 7.3 7.5 7.5 7.3
Wind_Speed
6 5 6 7 8 8 8 9 18 18 19 20 21 21 20 12 10 12 11 14 12 10
5 8 9 11 12 7 14 15 19 20 19 21 21 21 19 11 13 13 12 13 13 12
9 10 12 13 12 13 16 19 19 18 19 18 20 20 16 13 14 14 12 11 15 15
10 11 13 11 11 13 18 19 15 16 15 16 16 15 15 16 17 17 17 16 17 19
11 12 12 13 13 20 15 21 18 18 16 17 17 17 17 18 17 18 19 18 18 19
12 12 13 15 15 18 16 15 18 16 17 17 17 18 18 18 19 19 19 18 19 19
13 14 14 15 16 16 16 16 17 16 17 18 18 19 19 19 19 20 19 20 20 19
13 14 14 15 16 16 16 16 17 17 17 18 17 14 18 19 19 19 20 21 21 21
13 14 15 16 17 17 17 17 16 17 18 18 14 30 34 30 20 20 20 20 19 19
14 15 16 17 17 17 17 16 17 18 18 18 20 33 36 35 20 18 18 18 16 16
14 16 16 17 18 17 15 17 17 18 19 18 17 34 36 36 22 17 19 19 19 20
14 16 17 17 18 17 16 16 17 17 19 20 20 33 36 31 19 18 19 19 20 20
15 15 17 18 17 16 16 16 15 19 20 26 21 31 34 30 15 18 15 19 20 33
15 14 15 16 16 15 16 15 17 18 18 18 20 21 34 33 18 14 14 14 14 14
Wind_Direction
296 298 296 291 295 296 294 291 294 289 286 286 288 287 285 280 276 272 267 264 258 258
302 307 299 296 296 296 292 291 292 292 287 285 284 284 283 279 277 274 272 268 265 261
305 299 298 298 294 291 292 294 293 291 287 285 283 281 279 277 274 273 270 268 268 266
305 305 300 294 292 291 291 290 288 288 287 286 285 280 276 273 273 270 269 266 265 266
303 299 297 295 293 293 290 290 287 288 287 285 282 280 276 274 271 269 268 266 264 264
304 302 296 294 295 294 292 290 290 289 286 285 282 280 276 274 272 269 266 265 263 264
298 296 295 294 294 293 294 293 292 288 287 286 284 282 279 276 273 268 263 258 255 254
294 295 295 295 296 298 298 294 292 291 290 287 285 282 281 275 270 264 260 255 253 249
308 308 305 304 304 303 299 296 296 295 292 290 286 287 291 290 282 274 268 266 259 244
307 305 306 306 304 302 302 302 299 296 293 290 288 290 293 292 288 284 278 273 269 263
310 309 309 307 304 304 305 303 301 298 297 294 291 296 299 299 296 290 284 276 268 262
314 310 309 307 305 305 305 304 302 300 301 299 295 294 302 304 296 284 276 271 265 258
307 307 305 303 303 305 301 300 305 303 300 297 295 298 303 306 296 288 282 273 263 258
306 306 301 302 303 304 307 306 305 302 301 300 299 305 307 308 304 298 297 291 282 269